• In Belarus
  • List of Countries
  • For 7 days
  • Water Temperature
  • Weather Map
  • Weather Widgets
  • user-avatar
    Login

    Hourly Weather Kipungo

    Today, 24 February, Monday

    Time Temperature Precipitation Wind Pressure Humidity
    00:00 +19°C° 0 mm 2 mps 653 mmHg 90%
    01:00 +19°C° 0 mm 3 mps 653 mmHg 93%
    02:00 +19°C° 0 mm 2 mps 652 mmHg 93%
    03:00 +19°C° 0 mm 2 mps 652 mmHg 94%
    04:00 +19°C° 0 mm 2 mps 652 mmHg 94%
    05:00 +20°C° 0 mm 1 mps 653 mmHg 94%
    06:00 +20°C° 0 mm 1 mps 653 mmHg 94%
    07:00 +18°C° 0 mm 0 mps 653 mmHg 93%
    08:00 +21°C° 0 mm 0 mps 654 mmHg 83%
    09:00 +25°C° 0 mm 1 mps 655 mmHg 74%
    10:00 +28°C° 0 mm 1 mps 656 mmHg 64%
    11:00 +28°C° 1.1 mm 1 mps 655 mmHg 62%
    12:00 +29°C° 1.1 mm 2 mps 655 mmHg 61%
    13:00 +29°C° 1.1 mm 2 mps 654 mmHg 59%
    14:00 +29°C° 1.4 mm 2 mps 654 mmHg 64%
    15:00 +28°C° 1.4 mm 3 mps 653 mmHg 68%
    16:00 +27°C° 1.4 mm 3 mps 652 mmHg 73%
    17:00 +25°C° 1.6 mm 3 mps 652 mmHg 78%
    18:00 +24°C° 1.6 mm 3 mps 652 mmHg 83%
    19:00 +21°C° 1.6 mm 2 mps 652 mmHg 88%
    20:00 +21°C° 0.5 mm 2 mps 653 mmHg 89%
    21:00 +20°C° 0.5 mm 2 mps 653 mmHg 91%
    22:00 +20°C° 0.5 mm 2 mps 653 mmHg 92%
    23:00 +19°C° 0 mm 2 mps 653 mmHg 93%

    Tomorrow, 25 February, Tuesday

    Time Temperature Precipitation Wind Pressure Humidity
    00:00 +19°C° 0 mm 2 mps 653 mmHg 94%
    01:00 +19°C° 0 mm 2 mps 653 mmHg 95%
    02:00 +18°C° 0 mm 2 mps 652 mmHg 96%
    03:00 +19°C° 0 mm 1 mps 652 mmHg 96%
    04:00 +19°C° 0 mm 1 mps 651 mmHg 96%
    05:00 +19°C° 0 mm 1 mps 651 mmHg 95%
    06:00 +17°C° 0 mm 0 mps 652 mmHg 94%
    07:00 +18°C° 0 mm 0 mps 652 mmHg 93%
    08:00 +21°C° 0 mm 0 mps 653 mmHg 82%
    09:00 +24°C° 0 mm 0 mps 654 mmHg 70%
    10:00 +27°C° 0 mm 0 mps 654 mmHg 58%
    11:00 +28°C° 0 mm 0 mps 654 mmHg 53%
    12:00 +31°C° 0 mm 1 mps 654 mmHg 47%
    13:00 +33°C° 0 mm 1 mps 654 mmHg 42%
    14:00 +32°C° 0 mm 1 mps 653 mmHg 43%
    15:00 +31°C° 0 mm 2 mps 652 mmHg 45%
    16:00 +30°C° 0 mm 2 mps 651 mmHg 46%
    17:00 +28°C° 0.1 mm 2 mps 651 mmHg 57%
    18:00 +25°C° 0.1 mm 2 mps 651 mmHg 68%
    19:00 +23°C° 0.1 mm 2 mps 651 mmHg 79%
    20:00 +21°C° 0 mm 2 mps 651 mmHg 80%
    21:00 +21°C° 0 mm 2 mps 652 mmHg 81%
    22:00 +20°C° 0 mm 2 mps 652 mmHg 83%
    23:00 +19°C° 0 mm 2 mps 652 mmHg 85%

    Day after tomorrow, 26 February, Wednesday

    Time Temperature Precipitation Wind Pressure Humidity
    00:00 +19°C° 0 mm 2 mps 652 mmHg 87%
    01:00 +19°C° 0 mm 2 mps 651 mmHg 89%
    02:00 +18°C° 0 mm 2 mps 651 mmHg 89%
    03:00 +19°C° 0 mm 1 mps 651 mmHg 88%
    04:00 +18°C° 0 mm 1 mps 650 mmHg 88%
    05:00 +18°C° 0 mm 1 mps 651 mmHg 87%
    06:00 +18°C° 0 mm 1 mps 651 mmHg 86%
    07:00 +19°C° 0 mm 1 mps 652 mmHg 85%
    08:00 +22°C° 0 mm 1 mps 652 mmHg 74%
    09:00 +24°C° 0 mm 1 mps 653 mmHg 62%
    10:00 +27°C° 0 mm 1 mps 654 mmHg 51%
    11:00 +28°C° 0 mm 1 mps 654 mmHg 46%
    12:00 +30°C° 0 mm 1 mps 654 mmHg 41%
    13:00 +31°C° 0 mm 2 mps 653 mmHg 36%
    14:00 +30°C° 0 mm 2 mps 653 mmHg 39%
    15:00 +30°C° 0 mm 3 mps 652 mmHg 41%
    16:00 +29°C° 0 mm 3 mps 651 mmHg 44%
    17:00 +27°C° 0 mm 3 mps 651 mmHg 51%
    18:00 +24°C° 0 mm 3 mps 651 mmHg 58%
    19:00 +21°C° 0 mm 2 mps 651 mmHg 65%
    20:00 +20°C° 0 mm 2 mps 651 mmHg 66%
    21:00 +19°C° 0 mm 2 mps 652 mmHg 67%
    22:00 +19°C° 0 mm 2 mps 652 mmHg 68%
    23:00 +18°C° 0 mm 2 mps 652 mmHg 72%

    27 February, Thursday

    Time Temperature Precipitation Wind Pressure Humidity
    00:00 +18°C° 0 mm 2 mps 652 mmHg 76%
    01:00 +17°C° 0 mm 2 mps 651 mmHg 79%
    02:00 +17°C° 0 mm 2 mps 651 mmHg 83%
    03:00 +18°C° 0 mm 1 mps 651 mmHg 86%
    04:00 +16°C° 0 mm 1 mps 651 mmHg 90%
    05:00 +18°C° 0 mm 1 mps 651 mmHg 89%
    06:00 +18°C° 0 mm 1 mps 652 mmHg 87%
    07:00 +18°C° 0 mm 1 mps 652 mmHg 86%
    08:00 +21°C° 0 mm 1 mps 653 mmHg 73%
    09:00 +24°C° 0 mm 1 mps 654 mmHg 59%
    10:00 +27°C° 0 mm 1 mps 655 mmHg 45%
    11:00 +28°C° 0 mm 1 mps 654 mmHg 41%
    12:00 +30°C° 0 mm 2 mps 654 mmHg 36%
    13:00 +31°C° 0 mm 2 mps 654 mmHg 31%
    14:00 +30°C° 0 mm 2 mps 653 mmHg 34%
    15:00 +30°C° 0 mm 3 mps 653 mmHg 37%
    16:00 +29°C° 0 mm 3 mps 652 mmHg 40%
    17:00 +27°C° 0 mm 3 mps 652 mmHg 49%
    18:00 +24°C° 0 mm 2 mps 652 mmHg 57%
    19:00 +20°C° 0 mm 2 mps 652 mmHg 66%
    20:00 +20°C° 0 mm 2 mps 652 mmHg 68%
    21:00 +19°C° 0 mm 2 mps 652 mmHg 70%
    22:00 +18°C° 0 mm 2 mps 653 mmHg 71%
    23:00 +17°C° 0 mm 2 mps 653 mmHg 75%

    28 February, Friday

    Time Temperature Precipitation Wind Pressure Humidity
    00:00 +18°C° 0 mm 1 mps 652 mmHg 79%
    01:00 +16°C° 0 mm 1 mps 652 mmHg 82%
    02:00 +16°C° 0 mm 1 mps 652 mmHg 82%
    03:00 +16°C° 0 mm 1 mps 652 mmHg 83%
    04:00 +16°C° 0 mm 1 mps 651 mmHg 83%
    05:00 +16°C° 0 mm 1 mps 652 mmHg 81%
    06:00 +16°C° 0 mm 0 mps 652 mmHg 78%
    07:00 +16°C° 0 mm 0 mps 653 mmHg 76%
    08:00 +20°C° 0 mm 0 mps 654 mmHg 65%
    09:00 +24°C° 0 mm 0 mps 655 mmHg 54%
    10:00 +27°C° 0 mm 0 mps 656 mmHg 43%
    11:00 +29°C° 0 mm 0 mps 656 mmHg 39%
    12:00 +30°C° 0 mm 0 mps 656 mmHg 36%
    13:00 +33°C° 0 mm 1 mps 655 mmHg 32%
    14:00 +33°C° 0 mm 1 mps 655 mmHg 33%
    15:00 +32°C° 0 mm 1 mps 654 mmHg 34%
    16:00 +31°C° 0 mm 2 mps 653 mmHg 35%
    17:00 +28°C° 0 mm 2 mps 653 mmHg 45%
    18:00 +26°C° 0 mm 2 mps 653 mmHg 55%
    19:00 +23°C° 0 mm 2 mps 652 mmHg 65%
    20:00 +21°C° 0 mm 2 mps 653 mmHg 66%
    21:00 +21°C° 0 mm 1 mps 653 mmHg 67%
    22:00 +20°C° 0 mm 1 mps 653 mmHg 68%
    23:00 +20°C° 0 mm 1 mps 653 mmHg 69%

    29 February, Saturday

    Time Temperature Precipitation Wind Pressure Humidity
    00:00 +19°C° 0 mm 1 mps 652 mmHg 71%
    01:00 +19°C° 0 mm 1 mps 652 mmHg 73%
    02:00 +18°C° 0 mm 1 mps 652 mmHg 75%
    03:00 +18°C° 0 mm 1 mps 652 mmHg 77%
    04:00 +16°C° 0 mm 1 mps 651 mmHg 79%
    05:00 +16°C° 0 mm 0 mps 652 mmHg 79%
    06:00 +17°C° 0 mm 0 mps 652 mmHg 78%
    07:00 +17°C° 0 mm 0 mps 653 mmHg 77%
    08:00 +20°C° 0 mm 0 mps 654 mmHg 65%
    09:00 +25°C° 0 mm 1 mps 655 mmHg 54%
    10:00 +28°C° 0 mm 1 mps 656 mmHg 43%
    11:00 +29°C° 0 mm 1 mps 655 mmHg 39%
    12:00 +30°C° 0 mm 1 mps 655 mmHg 35%
    13:00 +31°C° 0 mm 1 mps 655 mmHg 31%
    14:00 +31°C° 0 mm 2 mps 654 mmHg 33%
    15:00 +31°C° 0 mm 2 mps 654 mmHg 34%
    16:00 +31°C° 0 mm 2 mps 653 mmHg 35%
    17:00 +28°C° 0 mm 2 mps 653 mmHg 41%
    18:00 +26°C° 0 mm 2 mps 652 mmHg 48%
    19:00 +24°C° 0 mm 1 mps 652 mmHg 54%
    20:00 +23°C° 0 mm 2 mps 653 mmHg 56%
    21:00 +21°C° 0 mm 2 mps 653 mmHg 57%
    22:00 +20°C° 0 mm 2 mps 653 mmHg 58%
    23:00 +20°C° 0 mm 2 mps 653 mmHg 60%
    Show more